GALILEO207 [COD] 1 41859C 16069A 22226.99979167 .00000000 00000+0 00000+0 0 2261 2 41859 54.8295 139.9603 0003902 302.7510 172.1541 1.70472734 12 GALILEO207 [ESA] 1 41859C 16069A 22226.99979167 .00000000 00000+0 00000+0 0 2261 2 41859 54.8295 139.9603 0003902 302.7564 172.1487 1.70472732 18 GALILEO207 [GAL] 1 41859C 16069A 22227.01020833 .00000000 00000+0 00000+0 0 2273 2 41859 54.8295 139.9600 0003902 302.7627 178.5353 1.70472734 19